Location: Rio de Janeiro
(22.9068°S, 43.1729°W)
Time: 13:56:07
(UTC-03:00)

Hubble Space Telescope - Pass Details

Date: 04 December 2023
Orbit: 515 x 519 km, 28.5° (Epoch: 02 March)

Event Time Altitude Azimuth Distance (km) Brightness Sun altitude
Exits shadow 02:36:18 34° 153° (SSE) 884 2.3 -28.2°
Drops below altitude 10° 02:39:13 10° 116° (ESE) 1,765 4.3 -27.7°
Sets 02:41:35 0° 108° (ESE) 2,653 5.3 -27.3°
